Regional Weather Roundup
Issued by NWS

Home | Current Version | Previous Version | Text Only | Print | Product List | Glossary Off
Versions: 1 2 3 4 5 6 7 8 9 10 11 12 13 14 15 16 17 18 19 20 21 22 23 24 25 26 27 28 29 30 31 32 33 34 35 36 37 38 39 40 41 42 43 44 45 46 47 48 49 50

780
ASUS45 KBOI 020910
RWRID

IDAHO REGIONAL WEATHER ROUNDUP
NATIONAL WEATHER SERVICE BOISE ID
300 AM MDT MON MAY 02 2016

NOTE: "FAIR" INDICATES FEW OR NO CLOUDS BELOW 12000 FEET
WITH NO SIGNIFICANT WEATHER AND/OR OBSTRUCTIONS TO VISIBILITY

IDZ012-014-021000-
SOUTHWEST IDAHO


CITY           SKY/WX    TMP DP  RH WIND       PRES   REMARKS
BOISE          CLEAR     51  38  60 SE6       30.08F
CALDWELL       PTCLDY    47  37  68 E8        30.08F
MOUNTAIN HOME  CLEAR     42  32  69 E6        30.10S
$$

IDZ016-017-021000-
SOUTHCENTRAL IDAHO


CITY           SKY/WX    TMP DP  RH WIND       PRES   REMARKS
BURLEY         CLEAR     39  33  79 NW6       30.13R WCI  35
JEROME         CLEAR     40  31  70 NE3       30.14S
TWIN FALLS     CLEAR     38  32  79 CALM      30.14R
$$

IDZ019>023-021000-
SOUTHEAST IDAHO


CITY           SKY/WX    TMP DP  RH WIND       PRES   REMARKS
IDAHO FALLS    CLEAR     36  26  67 NE6       30.20R WCI  31
POCATELLO      CLEAR     40  30  67 VRB7      30.17S
REXBURG        CLEAR     39  25  57 S3        30.20S
$$

IDZ006-010-011-018-031-032-021000-
CENTRAL IDAHO MOUNTAINS


CITY           SKY/WX    TMP DP  RH WIND       PRES   REMARKS
MCCALL         CLEAR     38  33  82 CALM      30.14R
HAILEY         CLEAR     37  30  75 NW8       30.20R WCI  31
STANLEY          N/A     30  24  78 S3        30.22R
SALMON         CLEAR     37  28  70 S3        30.17S
CHALLIS        CLEAR     37  25  61 CALM      30.18R
$$

IDZ002-004-006-007-026-021000-
NORTHERN IDAHO


CITY           SKY/WX    TMP DP  RH WIND       PRES   REMARKS
LEWISTON       CLEAR     53  45  74 CALM      30.05S
LOWELL           N/A     48  44  86 N3        30.13R
COEUR D`ALENE  CLEAR     46  39  76 E6        30.06F
MULLAN PASS    CLEAR     46  28  49 SE8       30.19S
$$




USA.gov is the U.S. government's official web portal to all federal, state and local government web resources and services.